Voltar ao catálogo

ARIANE 2 DEB

LostGTO
NORAD 27044·DEBRIS·🇫🇷 France

Lançado Jan 27, 1989 de Guiana Space Centre

Loading…

TLE

ObsoletoSource: Space-Track

Época: May 31, 2025, 03:16 UTC

1 27044U 89006Z   25151.13670889  .00005091  00000-0  21149-1 0  9999
2 27044   7.6140 160.7271 7137298 273.9800  14.4591  2.35550517199452

Acompanhe ARIANE 2 DEB em tempo real com AllMySat

Download on the App Store